Vorticity
nan nan nan nan nan nan nan nan nan nan nan nan nan nan nan nan nan nan nan nan nan nan nan nan nan nan nan nan nan nan nan nan nan nan nan nan nan nan nan nan nan nan nan nan nan nan nan nan nan
nan 3 7 9 6 3 8 9 7 7 -1 7 8 5 7 5 6 8 8 11 7 7 7 7 8 6 6 5 6 5 6 5 6 6 5 4 4 5 6 5 5 7 6 6 6 7 6 3 nan
nan 4 9 8 4 3 8 7 6 5 10 7 4 6 6 8 8 7 9 12 7 8 7 8 9 6 7 6 6 6 6 5 6 5 6 5 5 5 5 5 6 6 6 6 6 6 4 4 nan
nan 3 9 10 3 4 6 3 4 1 13 7 8 3 5 8 10 9 12 8 6 6 6 9 9 7 6 6 6 6 5 6 6 6 5 5 6 4 3 5 6 6 6 7 6 5 4 5 nan
nan 10 8 5 6 7 5 4 4 6 8 4 7 8 4 5 11 12 9 7 6 7 7 8 8 7 6 6 5 5 5 5 7 8 5 7 5 7 4 5 5 5 6 8 7 5 5 6 nan
nan 9 6 8 7 7 4 11 4 9 4 9 8 8 4 8 10 8 7 6 7 7 7 11 9 6 7 6 5 5 4 5 6 7 8 11 4 6 0 4 6 7 9 7 7 5 6 5 nan
nan 7 7 6 7 7 11 9 6 6 3 11 12 6 4 6 10 9 6 7 8 7 7 9 9 7 7 7 7 7 7 6 11 12 13 11 12 3 6 4 5 9 11 6 6 5 5 5 nan
nan 6 9 8 7 4 13 8 7 7 5 10 8 6 7 13 11 6 6 7 7 7 8 9 9 7 8 9 6 6 12 14 14 11 11 4 0 6 15 7 7 11 7 6 6 6 5 4 nan
nan 5 8 9 4 4 7 9 5 6 8 6 8 8 10 14 4 4 4 5 6 7 8 7 8 8 8 9 10 12 12 12 1 3 0 -3 -1 8 6 6 10 7 6 6 6 7 6 4 nan
nan 6 9 7 2 5 5 3 6 6 6 5 6 7 12 9 8 4 4 5 3 4 6 6 7 7 7 8 10 12 6 3 4 5 1 2 7 7 7 10 11 3 5 4 4 5 1 0 nan
nan 5 8 7 5 8 5 6 5 3 7 7 3 6 9 6 6 3 6 8 8 4 8 8 6 8 7 6 7 7 8 7 8 7 5 4 7 8 7 10 10 10 2 3 5 2 2 4 nan
nan 9 5 6 5 6 6 5 6 6 4 5 7 5 8 9 5 6 4 6 8 7 8 6 7 7 6 6 8 9 9 7 8 9 7 6 8 8 6 9 10 9 4 7 5 6 8 7 nan
nan 7 8 5 5 4 6 2 9 8 7 6 8 9 9 10 6 6 8 7 7 8 10 8 5 6 7 7 7 8 8 9 9 9 8 6 7 7 7 8 9 8 7 6 7 9 7 7 nan
nan 7 7 8 9 8 9 6 8 8 5 8 9 8 11 11 9 4 9 7 6 8 9 8 6 6 6 8 8 6 7 9 9 9 8 7 6 7 7 8 7 7 8 7 9 8 7 8 nan
nan 8 14 14 12 8 12 8 7 5 7 7 8 11 12 9 10 7 6 7 7 8 10 7 5 8 7 7 6 7 7 7 7 9 10 7 5 7 7 7 8 7 8 6 5 8 8 8 nan
nan 9 6 9 10 13 11 0 10 12 12 8 8 11 12 14 9 5 8 10 10 11 11 8 5 6 8 8 7 8 9 7 7 8 10 8 5 7 8 7 8 7 8 6 7 6 7 7 nan
nan 7 5 10 11 14 2 8 9 8 10 8 8 9 10 10 8 10 11 11 9 9 10 9 6 7 7 7 7 9 9 8 8 9 10 11 9 6 6 9 10 8 8 7 5 8 9 7 nan
nan 7 8 9 6 9 2 11 8 9 8 8 6 9 10 11 9 12 8 9 9 9 10 9 6 7 7 7 6 7 9 9 8 9 10 10 9 8 7 10 9 8 7 8 9 5 6 11 nan
nan 6 6 6 5 3 9 9 5 8 7 7 9 10 11 12 13 16 11 8 6 8 10 9 6 6 5 5 6 7 8 9 10 15 17 14 14 12 9 8 9 8 9 9 5 6 5 7 nan
nan 5 7 7 11 5 9 3 10 12 11 9 6 8 10 10 14 12 11 7 8 7 6 7 8 6 5 6 8 10 9 9 9 12 16 13 15 15 11 9 8 8 7 9 8 4 2 10 nan
nan 8 7 8 10 8 12 12 16 12 7 8 12 11 9 13 11 10 10 7 7 9 8 7 8 5 4 7 6 8 8 9 9 10 9 9 7 6 8 10 9 9 8 9 8 4 5 7 nan
nan 12 8 10 10 10 10 19 14 6 9 11 10 10 12 14 12 10 8 11 9 8 8 9 10 8 5 4 5 6 7 7 8 8 11 11 9 8 8 6 8 7 9 10 9 7 7 9 nan
nan 10 11 12 8 11 5 10 10 12 11 11 12 9 12 16 14 12 13 8 7 10 7 8 9 8 8 7 4 6 8 8 10 10 9 9 11 9 6 7 9 7 9 11 9 7 7 9 nan
nan 10 9 9 10 13 11 7 3 9 7 9 10 8 11 14 14 9 13 13 11 8 8 8 7 6 7 9 7 6 7 7 8 8 8 8 8 13 10 7 5 7 9 10 8 9 9 7 nan
nan 6 10 11 9 8 14 11 5 11 15 9 5 9 17 16 14 12 9 9 9 8 6 7 9 8 6 7 10 7 7 8 8 7 9 8 6 10 17 11 6 7 5 6 9 9 9 8 nan
nan 7 8 8 7 11 12 6 9 8 14 14 13 10 10 17 15 13 9 8 10 9 7 7 9 8 8 9 7 8 8 7 9 9 9 9 9 9 14 12 10 6 7 7 5 6 6 8 nan
nan 9 5 11 11 10 8 8 1 -2 7 10 11 13 10 15 22 20 16 14 13 11 9 7 9 8 7 8 7 8 8 9 9 9 8 10 10 11 10 11 11 11 6 5 5 5 6 6 nan
nan 10 8 8 9 9 9 9 4 1 8 10 9 10 17 22 22 20 18 14 13 12 12 11 11 11 7 8 8 9 9 8 9 9 9 8 9 10 11 10 9 9 11 11 8 6 8 6 nan
nan 9 8 7 11 7 11 8 6 3 6 10 12 10 14 23 22 15 13 16 12 10 11 12 12 9 8 8 9 9 10 9 8 8 8 8 8 9 9 10 10 9 9 9 9 9 9 8 nan
nan nan nan nan nan nan nan nan nan nan nan nan nan nan nan nan nan nan nan nan nan nan nan nan nan nan nan nan nan nan nan nan nan nan nan nan nan nan nan nan nan nan nan nan nan nan nan nan nan
CAPE
0 0 0 0 0 0 0 0 0 0 0 0 0 0 0 0 0 0 12 860 961 1010 1142 1298 1503 1617 1602 1656 1610 1825 2022 2175 2188 2090 2025 1957 1884 1701 1642 1718 1617 1657 1715 1605 1573 1279 1114 1080 1071
0 0 0 0 0 0 0 0 0 0 0 0 0 0 0 0 398 418 701 818 1136 1126 1070 1254 1518 1641 1643 1664 1750 1759 2125 2205 2230 2161 2066 1982 1886 1740 1573 1545 1682 1641 1620 1686 1326 1348 1182 1052 1068
0 0 0 0 0 0 0 0 0 0 0 0 0 0 0 0 591 520 602 1067 1228 1292 1139 1211 1524 1603 1720 1681 1784 1806 1926 2053 2063 2033 2089 2033 1937 1848 1851 1523 1662 1714 1726 1697 1498 1372 1208 1063 808
0 0 0 0 0 0 0 0 0 0 0 0 0 0 0 0 492 596 585 1279 1263 1378 1265 1218 1459 1593 1783 1745 1838 1837 1827 1777 1855 1892 1999 2045 1974 1935 1903 1655 1668 1665 1695 1717 1523 1388 1094 745 589
0 0 0 0 0 0 0 0 0 0 0 0 0 0 0 0 259 455 1399 1175 1058 1156 1229 1217 1401 1593 1812 1847 1918 1872 1767 1655 1695 1824 1862 1891 1886 1849 1758 1592 1576 1627 1621 1605 1287 1137 788 492 342
0 0 0 0 0 0 0 0 0 0 0 0 0 0 0 3 327 575 1326 1180 812 923 1057 1120 1383 1541 1763 1806 1720 1596 1593 1630 1617 1712 1707 1470 1211 1082 1180 1431 1473 1350 1479 1189 1067 808 498 326 166
0 0 0 0 0 0 0 0 0 0 0 0 0 0 0 22 151 297 760 697 656 652 744 1040 1189 1453 1682 1697 1583 1234 1176 1281 1378 1088 630 445 275 546 760 1005 1309 1221 1037 981 787 531 294 174 59
0 0 0 0 0 0 0 0 0 0 0 0 0 0 0 7 53 150 535 484 499 488 516 617 1086 1352 1425 1507 1454 693 736 659 163 85 83 6 3 114 318 539 687 775 841 776 555 307 218 90 8
0 0 0 0 0 0 0 0 0 0 0 0 0 0 0 23 103 248 568 466 460 426 395 274 361 505 566 681 848 669 482 283 155 91 34 22 5 144 142 301 316 600 369 492 170 152 133 22 0
0 0 0 0 0 0 0 0 0 0 0 0 0 2 30 93 216 381 552 642 454 473 243 215 34 1 1 186 428 412 364 130 32 1 0 0 11 19 64 96 218 220 190 152 67 120 29 1 0
0 0 0 0 0 0 0 0 0 0 0 0 0 0 36 109 228 412 484 461 576 348 41 56 74 0 0 36 102 242 78 4 5 4 0 0 11 49 84 74 118 119 93 0 0 0 0 0 0
0 0 0 0 0 0 0 0 0 0 0 0 0 0 5 142 257 367 452 344 278 155 17 12 34 33 0 1 9 3 43 3 12 20 10 4 42 72 55 84 60 62 12 0 0 0 0 0 0
0 0 0 0 0 0 0 0 0 0 0 0 0 0 0 55 293 428 427 303 111 144 5 7 1 26 0 0 1 1 3 1 1 1 0 0 7 44 92 77 23 28 0 0 0 0 0 0 0
0 0 0 0 0 0 0 0 0 0 0 0 0 0 0 70 275 160 277 317 139 66 21 32 3 0 0 0 0 0 1 1 1 0 1 0 0 0 48 49 19 0 0 0 0 0 0 0 0
0 0 0 0 0 0 0 0 0 0 0 0 0 0 0 282 379 231 229 245 175 87 17 96 47 0 0 0 1 0 0 0 0 0 1 0 0 1 86 59 15 0 0 0 0 0 0 0 0
0 0 0 0 0 0 0 0 0 0 0 0 0 0 0 290 463 259 132 96 105 20 12 31 15 0 1 1 1 2 1 1 1 1 1 1 1 101 154 75 12 0 0 0 0 0 0 0 0
0 0 0 0 0 0 0 0 0 0 0 0 0 0 0 0 145 141 32 121 38 3 0 0 0 0 1 1 0 0 1 3 6 1 2 1 1 7 92 20 0 0 0 0 0 0 0 0 0
0 0 0 0 0 0 0 0 0 0 0 0 0 0 0 0 0 50 47 77 14 0 0 0 1 0 0 0 0 2 5 9 7 16 1 3 1 24 9 1 0 0 0 0 0 0 0 0 0
0 0 0 0 0 0 0 0 0 0 0 0 0 0 0 0 0 0 62 48 0 0 0 0 1 1 0 0 1 4 2 2 9 19 16 3 8 27 0 0 0 0 0 0 0 0 0 0 0
0 0 0 0 0 0 0 0 0 0 0 0 0 0 0 0 0 0 51 41 3 8 1 0 0 0 0 0 0 0 1 0 2 1 4 2 1 0 1 0 0 0 0 0 0 0 0 0 0
0 0 0 0 0 0 0 0 0 0 0 0 0 0 0 0 0 0 15 39 3 4 6 0 0 0 0 0 0 0 0 1 1 1 9 3 2 1 0 0 0 0 0 0 0 0 0 0 0
0 0 0 0 10 0 0 1 0 0 0 0 0 0 0 0 0 0 2 22 7 2 6 0 0 0 0 0 0 0 0 1 0 0 1 3 1 1 0 0 0 0 0 0 0 0 0 0 0
0 0 0 0 0 2 2 0 0 0 0 0 0 0 0 0 0 6 8 39 11 0 0 0 0 0 0 0 0 0 0 0 0 1 1 1 0 0 0 0 0 0 0 0 6 0 0 0 0
0 4 4 0 1 6 0 0 0 0 0 0 0 0 0 0 0 0 1 15 24 1 0 0 0 0 0 0 0 0 0 0 0 0 3 1 0 2 0 0 0 0 3 15 23 5 0 0 0
0 19 0 4 12 1 0 0 0 0 0 0 0 0 0 0 0 0 0 7 2 2 4 0 0 0 0 1 0 0 0 0 0 0 0 1 1 0 3 1 3 0 0 0 6 18 10 3 8
0 11 0 1 2 0 0 0 0 0 0 0 0 0 0 0 0 0 0 0 1 2 2 0 1 0 1 1 1 0 0 0 0 0 0 5 1 1 0 3 0 1 0 0 0 0 6 5 2
9 62 2 22 3 8 0 0 0 0 0 0 0 0 0 0 0 0 0 1 4 9 2 0 1 0 0 0 0 0 0 0 0 0 0 0 0 0 0 0 0 1 1 0 2 27 19 0 0
10 4 34 38 3 3 0 0 4 0 2 0 0 0 0 0 0 0 0 0 7 10 0 1 0 0 0 0 0 0 0 0 0 0 0 0 0 0 0 0 0 0 0 0 1 3 1 5 0
15 25 8 37 54 0 0 3 16 20 20 3 1 0 0 0 0 0 0 0 7 1 1 0 1 0 0 0 0 0 0 0 0 0 0 0 0 0 0 0 0 0 0 0 0 0 0 0 0
28 20 0 71 2 2 1 0 19 25 2 9 2 4 4 3 1 0 0 0 0 0 1 2 0 0 0 0 0 1 0 0 0 0 0 0 0 0 0 0 0 0 0 0 0 0 0 0 0